www.pogodaiklimat.ru

Погода и климат >> Архив погоды >> Норвегия >> Ona II


ПОГОДА в Ona II

  • Прогноз погоды в Ona II
  • Монитор погоды в Ona II
  • Климат города

АРХИВ ПОГОДЫ в Ona II

Время (UTC), дата Ветер
(напр.,м/с)
 
Видим.   Явления Облачность Т
(С)
Тd
(С)
f
(%)
Тe
(С)
Тes
(С)
Комфортность P
(гПа)
Po
(гПа)
Тmin
(С)
Tmax
(С)
R
(мм)
R24
(мм)
S
(см)
17 17.09 ЮЗ 11
{14}
н/о н/о +12.8 +9.3 79 +9 +9 1004.7 1003.0
16 17.09 Ю 11
{13}
н/о н/о +11.2 +9.1 87 +7 +7 1005.3 1003.6
18 17.09 ЮЗ 6
{19}
н/о н/о +12.0 +9.4 84 +9 +9 1005.1 1003.4 +10.3 +13.0
19 17.09 Ю 9
{11}
н/о н/о +12.3 +9.3 82 +9 +9 1004.8 1003.1
20 17.09 ЮЗ 9
{12}
н/о н/о +12.4 +9.2 81 +9 +9 1004.6 1002.9
21 17.09 ЮЗ 12
{15}
н/о н/о +12.8 +8.9 77 +9 +9 1003.9 1002.2
23 17.09 Ю 6
{8}
н/о н/о +12.6 +9.1 79 +10 +10 1003.7 1002.0
22 17.09 Ю 7
{15}
н/о н/о +12.5 +9.3 81 +10 +10 1004.1 1002.4
00 18.09 Ю 6
{15}
н/о н/о +12.5 +9.0 79 +10 +10 1003.2 1001.5
01 18.09 ЮВ 5
{7}
н/о н/о +12.2 +8.7 79 +10 +10 1002.5 1000.8
02 18.09 В 5
{6}
н/о н/о +11.9 +9.1 83 +9 +9 1001.4 999.7
03 18.09 В 7
{9}
н/о н/о +11.8 +8.5 80 +9 +9 999.7 998.0
05 18.09 В 7
{9}
н/о н/о +10.9 +8.8 87 +7 +7 997.1 995.4
04 18.09 В 7
{9}
н/о н/о +11.4 +8.6 83 +8 +8 998.4 996.7
06 18.09 В 7
{9}
н/о н/о +10.7 +9.3 91 +7 +7 996.2 994.5 +10.6 +13.2
07 18.09 В 7
{9}
н/о н/о +11.0 +9.8 92 +7 +7 995.8 994.1
08 18.09 ЮВ 5
{9}
н/о н/о +11.8 +10.7 93 +9 +9 995.7 994.0
09 18.09 Ю 6
{7}
н/о н/о +13.1 +12.2 94 +11 +11 996.0 994.3
11 18.09 ЮЗ 5
{7}
н/о н/о +14.0 +13.1 94 +12 +12 996.4 994.7
10 18.09 Ю 6
{9}
н/о н/о +13.4 +12.5 94 +11 +11 996.2 994.5
12 18.09 Ю 4
{9}
н/о н/о +13.7 +12.9 95 +12 +12 996.3 994.6
13 18.09 ЮВ 2
{4}
н/о н/о +13.6 +12.8 95 +13 +13 996.3 994.6
14 18.09 В 4
{5}
н/о н/о +13.9 +13.0 94 +12 +12 996.3 994.6
15 18.09 В 6
{7}
н/о н/о +14.2 +12.9 92 +12 +12 995.5 993.8
17 18.09 СВ 6
{9}
н/о н/о +14.1 +13.0 93 +12 +12 993.2 991.5
16 18.09 В 6
{8}
н/о н/о +14.4 +13.3 93 +12 +12 994.5 992.8
18 18.09 СВ 7
{9}
н/о н/о +14.2 +12.9 92 +12 +12 992.1 990.4 +10.6 +14.4
19 18.09 СВ 8
{11}
н/о н/о +14.3 +13.0 92 +12 +12 992.4 990.7
20 18.09 СВ 9
{12}
н/о н/о +14.3 +13.2 93 +12 +12 991.3 989.6
21 18.09 В 8
{12}
н/о н/о +14.0 +12.9 93 +11 +11 991.0 989.3
23 18.09 ЮЗ 6
{7}
н/о н/о +14.0 +13.1 94 +12 +12 991.4 989.7
22 18.09 ЮВ 3
{10}
н/о н/о +13.6 +12.5 93 +12 +12 990.9 989.2
00 19.09 З 11
{14}
н/о н/о +14.1 +13.2 94 +11 +11 991.1 989.4
01 19.09 ЮЗ 11
{15}
н/о н/о +14.1 +13.0 93 +11 +11 991.5 989.8
02 19.09 ЮЗ 9
{12}
н/о н/о +14.7 +13.1 90 +12 +12 992.1 990.4
03 19.09 ЮЗ 10
{12}
н/о н/о +15.5 +12.5 82 +13 +13 992.2 990.5
05 19.09 ЮЗ 15
{19}
н/о н/о +15.9 +10.9 72 +13 +13 992.4 990.7
04 19.09 З 12 н/о н/о +14.5 +12.7 89 +11 +11 992.3 990.6
06 19.09 ЮЗ 16
{20}
н/о н/о +14.9 +11.1 78 +12 +12 992.8 991.1 +13.6 +16.1
07 19.09 ЮЗ 11
{17}
н/о н/о +14.5 +11.7 83 +12 +12 993.4 991.7
08 19.09 ЮЗ 10
{13}
н/о н/о +14.7 +11.3 80 +12 +12 993.7 992.0
09 19.09 ЮЗ 12
{14}
н/о н/о +15.8 +9.9 68 +13 +13 994.2 992.5
11 19.09 ЮЗ 18
{24}
н/о н/о +13.8 +9.3 74 +10 +10 993.9 992.2
10 19.09 ЮЗ 11
{23}
н/о н/о +16.3 +7.3 55 +14 +14 994.2 992.5
12 19.09 ЮЗ 13
{24}
н/о н/о +15.0 +9.2 68 +12 +12 995.2 993.5
13 19.09 ЮЗ 15
{20}
н/о н/о +14.9 +9.1 68 +12 +12 994.6 992.9
14 19.09 З 10
{15}
н/о н/о +14.5 +9.9 74 +12 +12 994.4 992.7
15 19.09 12 н/о +14.3 +10.0 75 +16 +21 992.1 990.4
17 19.09 ЮВ 4
{8}
н/о н/о +14.5 +9.5 72 +13 +13 989.7 988.0
16 19.09 З 7
{10}
н/о н/о +14.8 +9.6 71 +13 +13 991.8 990.1
18 19.09 В 10
{20}
н/о н/о +13.8 +10.6 81 +11 +11 986.9 985.2 +13.6 +16.6
19 19.09 В 10
{14}
н/о н/о +13.6 +10.4 81 +11 +11 983.2 981.5
20 19.09 В 7
{14}
н/о н/о +14.9 +8.4 65 +13 +13 981.4 979.7
21 19.09 ЮЗ 11
{22}
н/о н/о +13.5 +9.6 77 +10 +10 981.4 979.7
23 19.09 Ю 10
{21}
н/о н/о +13.5 +8.4 71 +11 +11 980.5 978.8
22 19.09 Ю 5
{11}
н/о н/о +13.8 +9.5 75 +12 +12 980.4 978.7
00 20.09 Ю 20
{27}
н/о н/о +12.5 +8.0 74 +8 +8 980.8 979.1
01 20.09 Ю 21
{27}
н/о н/о +11.8 +7.7 76 +7 +7 980.8 979.1
02 20.09 ЮЗ 26
{32}
н/о н/о +12.6 +8.1 74 +7 +7 980.5 978.8
03 20.09 ЮЗ 29
{38}
н/о н/о +12.2 +7.1 71 +7 +7 980.7 979.0
05 20.09 ЮЗ 23
{29}
н/о н/о +11.9 +7.2 73 +7 +7 984.2 982.5
04 20.09 ЮЗ 23
{32}
н/о н/о +10.9 +8.1 83 +5 +5 983.5 981.8
06 20.09 ЮЗ 25
{38}
н/о н/о +10.9 +8.7 86 +5 +5 984.5 982.8 +10.2 +15.2
07 20.09 ЮЗ 25
{34}
н/о н/о +9.9 +7.7 86 +3 +3 985.3 983.6
08 20.09 ЮЗ 26
{35}
н/о н/о +11.1 +7.8 80 +5 +5 986.4 984.7
09 20.09 ЮЗ 17
{28}
н/о н/о +11.1 +7.0 76 +6 +6 987.9 986.2
11 20.09 ЮЗ 19
{29}
н/о н/о +11.5 +7.2 75 +6 +6 988.7 987.0
10 20.09 ЮЗ 23
{30}
н/о н/о +11.5 +7.0 74 +6 +6 987.7 986.0
12 20.09 ЮЗ 21
{35}
н/о н/о +12.1 +6.0 66 +7 +7 988.8 987.1
13 20.09 ЮЗ 22
{29}
н/о н/о +12.5 +6.1 65 +8 +8 989.0 987.3
14 20.09 ЮЗ 21
{28}
н/о н/о +12.8 +6.4 65 +8 +8 990.0 988.3
15 20.09 ЮЗ 20
{27}
н/о н/о +13.3 +5.0 57 +9 +9 989.8 988.1
17 20.09 ЮЗ 16
{25}
н/о н/о +13.5 +3.9 52 +10 +10 990.2 988.5
16 20.09 ЮЗ 16
{27}
н/о н/о +13.3 +6.0 61 +9 +9 990.5 988.8
18 20.09 Ю 15
{29}
н/о н/о +13.2 +3.6 52 +10 +10 990.1 988.4 +9.8 +13.7
19 20.09 Ю 16
{21}
н/о н/о +13.3 +4.7 56 +10 +10 989.5 987.8
20 20.09 ЮЗ 21
{28}
н/о н/о +11.2 +6.9 75 +6 +6 989.9 988.2
21 20.09 З 23
{31}
н/о н/о +11.4 +7.9 79 +6 +6 991.1 989.4
23 20.09 ЮЗ 18
{25}
н/о н/о +12.4 +6.2 66 +8 +8 993.3 991.6
22 20.09 ЮЗ 21
{30}
н/о н/о +11.8 +6.7 71 +7 +7 992.1 990.4
00 21.09 ЮЗ 20
{31}
н/о н/о +11.8 +6.7 71 +7 +7 993.0 991.3
01 21.09 ЮЗ 16
{23}
н/о н/о +11.7 +7.4 75 +7 +7 993.4 991.7
02 21.09 ЮЗ 17
{23}
н/о н/о +11.9 +6.6 70 +7 +7 993.3 991.6
03 21.09 ЮЗ 14
{20}
н/о н/о +11.4 +6.8 73 +7 +7 993.1 991.4
05 21.09 Ю 7
{13}
н/о н/о +10.6 +7.8 83 +7 +7 992.9 991.2
04 21.09 ЮЗ 12
{17}
н/о н/о +10.9 +8.1 83 +6 +6 993.4 991.7
06 21.09 Ю 7
{23}
н/о н/о +9.8 +7.6 86 +6 +6 992.5 990.8 +9.7 +13.4
07 21.09 З 4
{8}
н/о н/о +10.7 +7.0 78 +8 +8 991.0 989.3
08 21.09 ЮЗ 1
{4}
н/о н/о +10.9 +6.9 76 +11 +11 990.5 988.8
09 21.09 С 5
{6}
н/о н/о +10.5 +7.7 83 +8 +8 989.1 987.4
11 21.09 В 6
{12}
н/о н/о +10.7 +7.0 78 +8 +8 985.8 984.1
10 21.09 СВ 7
{9}
н/о н/о +10.9 +7.6 80 +7 +7 987.3 985.6
12 21.09 В 6
{12}
н/о н/о +10.9 +6.7 75 +8 +8 984.0 982.3
13 21.09 СВ 8
{11}
н/о н/о +11.0 +6.0 71 +7 +7 982.3 980.6
14 21.09 СВ 10
{12}
н/о н/о +11.2 +6.6 73 +7 +7 980.9 979.2
15 21.09 СВ 9
{13}
н/о н/о +11.1 +7.0 76 +7 +7 979.6 977.9
17 21.09 СВ 9
{13}
н/о н/о +11.0 +6.4 73 +7 +7 977.1 975.4
16 21.09 СВ 10
{13}
н/о н/о +11.0 +6.6 74 +7 +7 977.8 976.1
18 21.09 СВ 8
{13}
н/о н/о +10.4 +7.1 80 +7 +7 976.5 974.8 +9.8 +11.2
19 21.09 СВ 7
{11}
н/о н/о +9.7 +7.5 86 +6 +6 977.0 975.3
20 21.09 С 9
{27}
н/о н/о +9.8 +8.1 89 +5 +5 977.0 975.3
21 21.09 СЗ 16
{21}
н/о н/о +9.4 +7.2 86 +4 +4 977.7 976.0
23 21.09 З 15
{18}
н/о н/о +10.3 +6.3 76 +5 +5 979.3 977.6
22 21.09 СЗ 14
{18}
н/о н/о +9.8 +6.9 82 +5 +5 978.8 977.1
00 22.09 З 14
{27}
н/о н/о +9.4 +6.7 83 +4 +4 980.8 979.1
01 22.09 ЮЗ 13
{15}
н/о н/о +9.9 +7.7 86 +5 +5 980.8 979.1
02 22.09 З 15
{17}
н/о н/о +10.2 +8.0 86 +5 +5 981.7 980.0
03 22.09 З 16
{18}
н/о н/о +10.7 +7.6 81 +6 +6 982.4 980.7
05 22.09 З 17
{23}
н/о н/о +10.6 +6.2 74 +5 +5 983.1 981.4
04 22.09 З 16
{20}
н/о н/о +10.6 +7.5 81 +5 +5 983.1 981.4
06 22.09 З 17
{23}
н/о н/о +10.4 +6.2 75 +5 +5 983.3 981.6 +8.9
07 22.09 З 17
{22}
н/о н/о +10.7 +6.3 74 +5 +5 983.6 981.9
08 22.09 З 19
{23}
н/о н/о +10.3 +7.6 83 +5 +5 984.2 982.5
09 22.09 З 19
{24}
н/о н/о +10.6 +7.8 83 +5 +5 984.6 982.9
11 22.09 З 19
{24}
н/о н/о +10.6 +7.7 82 +5 +5 986.1 984.4
10 22.09 З 20
{24}
н/о н/о +11.1 +7.4 78 +6 +6 984.9 983.2
12 22.09 З 18
{24}
н/о н/о +10.9 +8.0 82 +6 +6 986.8 985.1
13 22.09 З 13
{21}
н/о н/о +11.0 +8.1 82 +6 +6 988.8 987.1
14 22.09 З 13
{16}
н/о н/о +11.0 +8.1 82 +6 +6 989.6 987.9
15 22.09 З 14
{17}
н/о н/о +11.0 +6.9 76 +6 +6 990.3 988.6
17 22.09 З 13
{17}
н/о н/о +10.9 +6.1 72 +6 +6 992.1 990.4
16 22.09 З 12
{17}
н/о н/о +11.2 +7.9 80 +7 +7 991.4 989.7
18 22.09 СЗ 13
{21}
н/о н/о +10.2 +6.0 75 +5 +5 993.4 991.7 +9.6 +11.4
19 22.09 З 13
{17}
н/о н/о +10.1 +6.8 80 +5 +5 994.1 992.4
20 22.09 СЗ 13
{17}
н/о н/о +10.1 +5.1 71 +5 +5 995.0 993.3
21 22.09 З 12
{15}
н/о н/о +10.1 +5.7 74 +5 +5 995.9 994.2
23 22.09 СЗ 12
{15}
н/о н/о +9.5 +4.9 73 +5 +5 997.5 995.8
22 22.09 СЗ 13
{17}
н/о н/о +9.4 +5.4 76 +4 +4 996.6 994.9
00 23.09 З 13
{17}
н/о н/о +9.5 +5.3 75 +4 +4 997.4 995.7
01 23.09 СЗ 13
{19}
н/о н/о +8.8 +4.2 73 +3 +3 998.5 996.8
02 23.09 СЗ 12
{16}
н/о н/о +9.2 +5.2 76 +4 +4 999.3 997.6
03 23.09 СЗ 14
{20}
н/о н/о +9.0 +3.8 70 +4 +4 999.7 998.0
05 23.09 СЗ 13
{17}
н/о н/о +8.9 +3.3 68 +4 +4 1000.8 999.1
04 23.09 СЗ 13
{17}
н/о н/о +9.0 +4.0 71 +4 +4 1000.0 998.3
06 23.09 СЗ 12
{20}
н/о н/о +9.1 +3.7 69 +4 +4 1001.5 999.8 +8.2 +10.6
07 23.09 СЗ 13
{16}
н/о н/о +8.8 +3.2 68 +3 +3 1001.6 999.8
08 23.09 СЗ 12
{19}
н/о н/о +8.2 +2.9 69 +3 +3 1002.8 1001.0
09 23.09 СЗ 14
{17}
н/о н/о +8.3 +2.8 68 +3 +3 1003.4 1001.6
11 23.09 СЗ 9
{19}
н/о н/о +8.2 +3.1 70 +3 +3 1004.6 1002.8
10 23.09 СЗ 12
{19}
н/о н/о +8.9 +3.7 70 +4 +4 1004.4 1002.6
12 23.09 СЗ 13
{19}
н/о н/о +8.7 +2.1 63 +3 +3 1005.3 1003.5
13 23.09 СЗ 9
{18}
н/о н/о +8.3 +3.6 72 +4 +4 1006.5 1004.7
14 23.09 З 15
{19}
н/о н/о +7.7 +1.1 63 +2 +2 1006.7 1004.9
15 23.09 СЗ 13
{16}
н/о н/о +8.6 +3.3 69 +3 +3 1007.6 1005.8
17 23.09 СЗ 14
{18}
н/о н/о +8.1 +2.4 67 +2 +2 1008.3 1006.5
16 23.09 З 12
{19}
н/о н/о +8.2 +2.0 65 +3 +3 1007.9 1006.1
18 23.09 З 14
{19}
н/о н/о +7.1 +3.0 75 +1 +1 1008.9 1007.1 +9.3
19 23.09 СЗ 13
{18}
н/о н/о +8.1 +1.9 65 +3 +3 1010.0 1008.2
20 23.09 З 13
{18}
н/о н/о +8.0 +1.8 65 +2 +2 1010.4 1008.6
21 23.09 СЗ 14
{19}
н/о н/о +7.5 +0.9 63 +2 +2 1011.2 1009.4
23 23.09 З 15
{19}
н/о н/о +7.4 +3.5 76 +1 +1 1011.9 1010.1
22 23.09 СЗ 12
{19}
н/о н/о +7.8 +1.9 66 +2 +2 1011.5 1009.7
00 24.09 СЗ 12
{19}
н/о н/о +6.9 +3.3 78 +1 +1 1013.4 1011.6
01 24.09 СЗ 13
{17}
н/о н/о +6.3 +2.2 75 -0 -0 1014.0 1012.2
02 24.09 СЗ 11
{19}
н/о н/о +6.2 +1.6 72 0 0 1015.1 1013.3
03 24.09 СЗ 12
{15}
н/о н/о +7.3 +0.5 62 +2 +2 1015.3 1013.5
05 24.09 З 17
{20}
н/о н/о +7.0 +2.9 75 0 0 1016.1 1014.3
04 24.09 СЗ 12
{16}
н/о н/о +7.5 +0.3 60 +2 +2 1015.9 1014.1
06 24.09 СЗ 11
{20}
н/о н/о +6.9 +1.4 68 +1 +1 1017.5 1015.7 +5.0 +8.3
07 24.09 СЗ 13
{17}
н/о н/о +7.5 +0.9 63 +2 +2 1018.3 1016.5
08 24.09 СЗ 10
{18}
н/о н/о +7.5 +0.7 62 +2 +2 1019.4 1017.6
09 24.09 СЗ 11
{17}
н/о н/о +7.8 +1.2 63 +3 +3 1020.2 1018.4
11 24.09 СЗ 11
{19}
н/о н/о +7.3 +2.6 72 +2 +2 1022.4 1020.6
10 24.09 СЗ 9
{15}
н/о н/о +8.0 +1.2 62 +3 +3 1021.3 1019.5
12 24.09 СЗ 8
{19}
н/о н/о +7.2 +1.1 65 +2 +2 1023.0 1021.2
13 24.09 СЗ 1
{17}
н/о н/о +7.4 +3.7 77 +7 +7 1024.0 1022.2
14 24.09 СЗ 6
{11}
н/о н/о +8.8 +2.6 65 +5 +5 1023.7 1021.9

 

Местоположение метеостанции Ona II (Норвегия): широта 62.86 долгота 6.54 высота над уровнем моря 13 м.

В архиве по умолчанию представлена погода в Ona II за последнюю неделю. Архивные данные за месяц целиком и за предыдущие месяцы, начиная с января 2011 года, Вы можете получить, выбрав интересующий диапазон дат из раскрывающегося списка и нажав кнопку "Ввод!".


*Определитесь, кто Вы:
робот инопланетянин человек

Внимание! Время в таблицах - всемирное. Для получения местного времени необходимо прибавить поправку, которая в Ona II равна 1 ч.

Смотрите также архив погоды в соседних городах и на ближайших метеорологических станциях:

Погода в Rekdal (Норвегия) (26 км)
Погода в Molde Lufthavn (Норвегия) (39 км)
Погода в Alesund Lufthavn (Норвегия) (39 км)
Погода в Lebergsfjellet (Норвегия) (41 км)
Погода в Alesund IV (Норвегия) (47 км)
Погода в Kristiansund Lufthavn (Норвегия) (70 км)
Погода в Mannen (Норвегия) (77 км)
Погода в Orsta-Volda Lufthavn (Норвегия) (79 км)
Погода в Marstein (Норвегия) (81 км)
Погода в Tafjord (Норвегия) (83 км)

Пояснения к столбцам:

Ветер - указаны скорость ветра в м/с - средняя за 10 мин, порывы в срок и между сроками (в фигурных скобках) и направление, откуда дует ветер: С - северный, СВ - северо-восточный, В - восточный, ЮВ - юго-восточный, Ю - южный, ЮЗ - юго-западный, З - западный, СЗ - северо-западный.
Видимость - горизонтальная дальность видимости в метрах или километрах. При видимости от 1 до 10 км при отсутствии осадков обычно наблюдается дымка, при ухудшении видимости до 1 км и менее - туман. В сухую погоду видимость может ухудшаться дымом, пылью или мглою.
Явления - указаны атмосферные явления, наблюдавшиеся в срок или в последний час перед сроком; фигурными скобками обозначены явления, наблюдавшиеся между сроками (за 1-3 часа до срока); квадратными скобками обозначены град или гололедные отложения с указанием их диаметра в мм.
Облачность - указаны через наклонную черту общая и нижняя облачность в баллах и высота нижней границы облаков в метрах; квадратными скобками обозначены формы облаков: Ci - перистые, Cs - перисто-слоистые, Cc - перисто-кучевые, Ac - высококучевые, As - высокослоистые, Sc - слоисто-кучевые, Ns - слоисто-дождевые, Cu - кучевые, Cb - кучево-дождевые. Подробнее классификацию облаков см. в Атласе облаков (PDF).
T - Температура воздуха - температура, измеренная на высоте 2 м над землей.
Td - Температура точки росы - температура, при понижении до которой содержащийся в воздухе водяной пар достигнет насыщения.
f - Относительная влажность воздуха - влажноcть воздуха, измеренная на высоте 2 м над землей.
Te - Эффективная температура - температура, которую ощущает одетый по сезону человек в тени. Характеристика душности погоды. При расчете учитывается влияние влажности воздуха и скорости ветра на теплоощущения человека.
Tes - Эффективная температура на солнце - температура, которую ощущает человек, с поправкой на солнечный нагрев. Характеристика знойности погоды. Зависит от высоты солнца над горизонтом, облачности и скорости ветра. Ночью, в пасмурную погоду, а также при ветре 12 м/с и более поправка равна нулю.
P - Атмосферное давление - приведенное к уровню моря атмосферное давление.
Po - Атмосферное давление - измеренное на уровне метеостанции атмосферное давление.
Tmin - Минимальная температура - минимум температуры воздуха на высоте 2 м над землей.
Tmax - Максимальная температура - максимум температуры воздуха на высоте 2 м над землей.
R - Количество осадков - Количество выпавших осадков за период времени, мм. При наведении курсора мыши на число - период времени, за который выпало указанное количество осадков.
R24 - Количество осадков - Количество выпавших осадков за 24 часа, мм.
S - Снежный покров - Высота снежного покрова, см. При наведении курсора мыши на число - состояние снежного покрова и степень покрытия местности в баллах.